Greybull, WY

3:41 AM MST on December 09, 2019 (GMT -0700)
South Big Horn County

Weather History for KGEY - October, 2019

Change the Weather History Date:

Sunday, October 13, 2019

  Actual Average Record
Temperature  
Mean Temperature 43 °F 47 °F  
Max Temperature 63 °F 61 °F 78 °F (2015)
Min Temperature 23 °F 33 °F 21 °F (2002)
Degree Days  
Heating Degree Days 22 18  
Month to date heating degree days 316 202  
Since 1 July heating degree days 491 433  
Cooling Degree Days 0 0  
Month to date cooling degree days 0 0  
Year to date cooling degree days 733 669  
Moisture  
Dew Point 26 °F    
Average Humidity 54    
Maximum Humidity 88    
Minimum Humidity 20    
Precipitation  
Precipitation 0.00 in 0.02 in 0.26 in (2013)
Month to date precipitation 0.26 0.32  
Year to date precipitation 7.58 6.65  
Sea Level Pressure  
Sea Level Pressure 29.96 in    
Wind  
Wind Speed 2 mph (SE)    
Max Wind Speed 8 mph    
Max Gust Speed 13 mph    
Visibility 10 miles    
Events      
T = Trace of Precipitation, MM = Missing Value Source: NWS Daily Summary

Daily Weather History Graph

Daily Weather History Graph

Search for Another Location

Airport or City:

Astronomy

Oct. 13, 2019 Rise Set
Actual Time 7:24 AM MDT 6:31 PM MDT
Civil Twilight 6:55 AM MDT 7:00 PM MDT
Nautical Twilight 6:21 AM MDT 7:34 PM MDT
Astronomical Twilight 5:47 AM MDT 8:08 PM MDT
Moon 6:57 PM MDT (10/13) 6:58 AM MDT (10/13)
Length of Visible Light 12h 05m
Length of Day
11h 06m
Full, 100% of the Moon is Illuminated
Oct 13
Full
Oct 13
Full
Oct 21
Last Quarter
Oct 27
New
Nov 4
First Quarter

Hourly Weather History & Observations

Time (MDT) Temp. Windchill Dew Point Humidity Pressure Visibility Wind Dir Wind Speed Gust Speed Precip Events Conditions
12:53 AM 28.9 °F - 24.1 °F 82% 30.01 in 10.0 mi North - - N/A   Clear
1:53 AM 27.0 °F - 23.0 °F 85% 30.01 in 10.0 mi North - - N/A   Clear
2:53 AM 27.0 °F - 21.9 °F 81% 30.01 in 10.0 mi Calm Calm - N/A   Clear
3:53 AM 26.1 °F - 23.0 °F 88% 30.01 in 10.0 mi Calm Calm - N/A   Clear
4:53 AM 26.1 °F 20.5 °F 21.9 °F 84% 30.01 in 10.0 mi SSE 4.6 mph - N/A   Clear
5:53 AM 25.0 °F - 21.0 °F 85% 30.01 in 10.0 mi Calm Calm - N/A   Clear
6:53 AM 24.1 °F - 19.9 °F 84% 30.03 in 10.0 mi Calm Calm - N/A   Clear
7:53 AM 25.0 °F - 21.9 °F 88% 30.04 in 10.0 mi Calm Calm - N/A   Clear
8:53 AM 28.9 °F - 25.0 °F 85% 30.07 in 10.0 mi Calm Calm - N/A   Clear
9:53 AM 35.1 °F - 26.1 °F 70% 30.06 in 10.0 mi Calm Calm - N/A   Clear
10:53 AM 39.9 °F 37.8 °F 28.0 °F 63% 30.04 in 10.0 mi Variable 3.5 mph - N/A   Clear
11:53 AM 48.0 °F - 28.9 °F 48% 30.01 in 10.0 mi SSE 4.6 mph - N/A   Clear
12:53 PM 54.0 °F - 26.1 °F 34% 29.97 in 10.0 mi South 4.6 mph - N/A   Clear
1:53 PM 57.9 °F - 24.1 °F 27% 29.93 in 10.0 mi Calm Calm - N/A   Clear
2:53 PM 60.1 °F - 26.1 °F 27% 29.89 in 10.0 mi Variable 4.6 mph - N/A   Clear
4:53 PM 62.1 °F - 23.0 °F 22% 29.86 in 10.0 mi Calm Calm - N/A   Clear
5:53 PM 60.1 °F - 25.0 °F 26% 29.87 in 10.0 mi Calm Calm - N/A   Clear
6:53 PM 55.0 °F - 27.0 °F 34% 29.88 in 10.0 mi Calm Calm - N/A   Clear
7:53 PM 51.1 °F - 28.9 °F 43% 29.90 in 10.0 mi ESE 3.5 mph - N/A   Clear
8:53 PM 46.9 °F - 30.9 °F 54% 29.90 in 10.0 mi ESE 4.6 mph - N/A   Clear
9:53 PM 45.0 °F 41.8 °F 30.0 °F 56% 29.89 in 10.0 mi SE 5.8 mph - N/A   Clear
10:53 PM 42.1 °F 39.2 °F 30.9 °F 65% 29.88 in 10.0 mi SE 4.6 mph - N/A   Clear
11:53 PM 39.0 °F - 30.0 °F 70% 29.86 in 10.0 mi Calm Calm - N/A   Clear